Orbital Elements at Epoch 2459000.5 (2020-May-31.0) TDB
Reference: JPL 21 (heliocentric ecliptic J2000)
Element | Value | Uncertainty (1-sigma) | Units |
e | .1868591998873717 | 3.3708e-08 | |
a | 2.531845060222552 | 1.0936e-08 | au |
q | 2.058746518030571 | 8.4423e-08 | au |
i | 12.11181287748851 | 1.0073e-05 | deg |
node | 335.5495497803356 | 2.4398e-05 | deg |
peri | 77.17804054801563 | 4.4403e-05 | deg |
M | 83.39099117454384 | 3.495e-05 | deg |
tp | 2458659.644152167492 (2019-Jun-25.14415217) | 0.00014294 | TDB |
period | 1471.479154898941 4.03 | 9.5337e-06 2.61e-08 | d yr |
n | .2446517837520602 | 1.5851e-09 | deg/d |
Q | 3.004943602414532 | 1.2979e-08 | au |
|
| | Orbit Determination Parameters
Additional Information
|